• In Uzbekistan
  • List of Countries
  • For 7 days
  • Water Temperature
  • Satellite Maps
  • Weather Map
  • Weather Widgets
  • user-avatar
    Login

    Hourly Weather Ordino

    Today, 23 August, Wednesday

    Time Temperature Precipitation Wind Pressure Humidity
    00:00 +14°C° 0.1 mm 0 mps 637 mmHg 71%
    01:00 +14°C° 0.1 mm 0 mps 637 mmHg 72%
    02:00 +14°C° 0.1 mm 0 mps 637 mmHg 73%
    03:00 +13°C° 0.1 mm 0 mps 636 mmHg 74%
    04:00 +13°C° 0.1 mm 0 mps 637 mmHg 73%
    05:00 +14°C° 0.1 mm 0 mps 637 mmHg 73%
    06:00 +14°C° 0.1 mm 0 mps 637 mmHg 72%
    07:00 +18°C° 0.1 mm 1 mps 638 mmHg 64%
    08:00 +20°C° 0.1 mm 1 mps 639 mmHg 55%
    09:00 +23°C° 0.1 mm 2 mps 640 mmHg 47%
    10:00 +24°C° 0 mm 2 mps 640 mmHg 44%
    11:00 +25°C° 0 mm 2 mps 640 mmHg 40%
    12:00 +26°C° 0 mm 2 mps 640 mmHg 37%
    13:00 +26°C° 0 mm 2 mps 640 mmHg 39%
    14:00 +26°C° 0 mm 2 mps 640 mmHg 40%
    15:00 +26°C° 0 mm 2 mps 639 mmHg 42%
    16:00 +24°C° 0.3 mm 2 mps 639 mmHg 49%
    17:00 +23°C° 0.3 mm 1 mps 638 mmHg 57%
    18:00 +21°C° 0.3 mm 1 mps 638 mmHg 65%
    19:00 +20°C° 0.3 mm 1 mps 637 mmHg 69%
    20:00 +18°C° 0.3 mm 1 mps 637 mmHg 73%
    21:00 +16°C° 0.3 mm 1 mps 637 mmHg 77%
    22:00 +16°C° 0.4 mm 1 mps 637 mmHg 78%
    23:00 +16°C° 0.4 mm 1 mps 637 mmHg 79%

    Tomorrow, 24 August, Thursday

    Time Temperature Precipitation Wind Pressure Humidity
    00:00 +15°C° 0.4 mm 1 mps 637 mmHg 80%
    01:00 +15°C° 0.2 mm 1 mps 636 mmHg 79%
    02:00 +15°C° 0.2 mm 1 mps 636 mmHg 79%
    03:00 +14°C° 0.2 mm 1 mps 636 mmHg 78%
    04:00 +14°C° 0 mm 1 mps 636 mmHg 76%
    05:00 +14°C° 0 mm 1 mps 636 mmHg 74%
    06:00 +14°C° 0 mm 1 mps 636 mmHg 72%
    07:00 +18°C° 0 mm 1 mps 637 mmHg 62%
    08:00 +20°C° 0 mm 2 mps 638 mmHg 52%
    09:00 +24°C° 0 mm 2 mps 639 mmHg 42%
    10:00 +25°C° 0 mm 2 mps 639 mmHg 40%
    11:00 +26°C° 0 mm 3 mps 640 mmHg 37%
    12:00 +27°C° 0 mm 3 mps 640 mmHg 35%
    13:00 +27°C° 0 mm 3 mps 639 mmHg 34%
    14:00 +27°C° 0 mm 3 mps 639 mmHg 34%
    15:00 +27°C° 0 mm 4 mps 639 mmHg 34%
    16:00 +25°C° 0 mm 3 mps 638 mmHg 39%
    17:00 +24°C° 0 mm 3 mps 638 mmHg 44%
    18:00 +21°C° 0 mm 2 mps 637 mmHg 50%
    19:00 +19°C° 0 mm 2 mps 637 mmHg 52%
    20:00 +18°C° 0 mm 2 mps 637 mmHg 55%
    21:00 +16°C° 0 mm 2 mps 636 mmHg 58%
    22:00 +15°C° 0 mm 2 mps 636 mmHg 56%
    23:00 +15°C° 0 mm 2 mps 636 mmHg 55%

    Day after tomorrow, 25 August, Friday

    Time Temperature Precipitation Wind Pressure Humidity
    00:00 +15°C° 0 mm 1 mps 636 mmHg 53%
    01:00 +14°C° 0 mm 2 mps 636 mmHg 53%
    02:00 +14°C° 0 mm 2 mps 636 mmHg 53%
    03:00 +14°C° 0 mm 2 mps 635 mmHg 53%
    04:00 +14°C° 0 mm 2 mps 636 mmHg 54%
    05:00 +14°C° 0 mm 2 mps 636 mmHg 55%
    06:00 +14°C° 0 mm 2 mps 636 mmHg 55%
    07:00 +17°C° 0 mm 2 mps 637 mmHg 49%
    08:00 +20°C° 0 mm 2 mps 638 mmHg 42%
    09:00 +24°C° 0 mm 3 mps 639 mmHg 35%
    10:00 +25°C° 0 mm 3 mps 639 mmHg 33%
    11:00 +27°C° 0 mm 3 mps 639 mmHg 30%
    12:00 +28°C° 0 mm 4 mps 640 mmHg 28%
    13:00 +28°C° 0 mm 4 mps 639 mmHg 29%
    14:00 +28°C° 0 mm 4 mps 639 mmHg 29%
    15:00 +27°C° 0 mm 4 mps 638 mmHg 30%
    16:00 +26°C° 0 mm 3 mps 638 mmHg 37%
    17:00 +24°C° 0 mm 3 mps 637 mmHg 43%
    18:00 +21°C° 0 mm 2 mps 636 mmHg 50%
    19:00 +19°C° 0.4 mm 2 mps 636 mmHg 55%
    20:00 +18°C° 0.4 mm 2 mps 636 mmHg 61%
    21:00 +16°C° 0.4 mm 2 mps 635 mmHg 66%
    22:00 +16°C° 0.4 mm 2 mps 635 mmHg 63%
    23:00 +16°C° 0.4 mm 2 mps 635 mmHg 61%

    26 August, Saturday

    Time Temperature Precipitation Wind Pressure Humidity
    00:00 +16°C° 0.4 mm 2 mps 635 mmHg 59%
    01:00 +15°C° 0.1 mm 2 mps 635 mmHg 56%
    02:00 +15°C° 0.1 mm 2 mps 634 mmHg 54%
    03:00 +14°C° 0.1 mm 2 mps 634 mmHg 51%
    04:00 +14°C° 0 mm 2 mps 634 mmHg 50%
    05:00 +15°C° 0 mm 2 mps 634 mmHg 48%
    06:00 +15°C° 0 mm 2 mps 635 mmHg 47%
    07:00 +17°C° 0 mm 2 mps 636 mmHg 42%
    08:00 +20°C° 0 mm 2 mps 637 mmHg 38%
    09:00 +24°C° 0 mm 3 mps 638 mmHg 33%
    10:00 +25°C° 0 mm 3 mps 638 mmHg 32%
    11:00 +25°C° 0 mm 3 mps 638 mmHg 31%
    12:00 +26°C° 0 mm 3 mps 638 mmHg 30%
    13:00 +26°C° 0 mm 3 mps 638 mmHg 31%
    14:00 +26°C° 0 mm 3 mps 638 mmHg 33%
    15:00 +26°C° 0 mm 4 mps 638 mmHg 34%
    16:00 +24°C° 0 mm 3 mps 637 mmHg 41%
    17:00 +23°C° 0 mm 2 mps 636 mmHg 49%
    18:00 +20°C° 0 mm 2 mps 636 mmHg 56%
    19:00 +19°C° 0.1 mm 2 mps 636 mmHg 59%
    20:00 +17°C° 0.1 mm 2 mps 636 mmHg 63%
    21:00 +16°C° 0.1 mm 2 mps 636 mmHg 66%
    22:00 +16°C° 0.2 mm 2 mps 635 mmHg 68%
    23:00 +16°C° 0.2 mm 2 mps 635 mmHg 70%

    27 August, Sunday

    Time Temperature Precipitation Wind Pressure Humidity
    00:00 +15°C° 0.2 mm 2 mps 635 mmHg 71%
    01:00 +15°C° 0.3 mm 2 mps 635 mmHg 71%
    02:00 +15°C° 0.3 mm 2 mps 634 mmHg 71%
    03:00 +15°C° 0.3 mm 2 mps 634 mmHg 70%
    04:00 +15°C° 0 mm 2 mps 634 mmHg 70%
    05:00 +15°C° 0 mm 2 mps 634 mmHg 69%
    06:00 +15°C° 0 mm 2 mps 635 mmHg 69%
    07:00 +17°C° 0 mm 2 mps 636 mmHg 60%
    08:00 +20°C° 0 mm 2 mps 637 mmHg 52%
    09:00 +24°C° 0 mm 2 mps 638 mmHg 43%
    10:00 +24°C° 0.2 mm 2 mps 638 mmHg 44%
    11:00 +25°C° 0.2 mm 3 mps 638 mmHg 46%
    12:00 +25°C° 0.2 mm 4 mps 638 mmHg 47%
    13:00 +22°C° 0.9 mm 3 mps 637 mmHg 53%
    14:00 +21°C° 0.9 mm 3 mps 637 mmHg 59%
    15:00 +20°C° 0.9 mm 2 mps 636 mmHg 64%
    16:00 +19°C° 0.1 mm 2 mps 636 mmHg 65%
    17:00 +19°C° 0.1 mm 2 mps 636 mmHg 65%
    18:00 +19°C° 0.1 mm 1 mps 635 mmHg 66%
    19:00 +18°C° 0.1 mm 1 mps 635 mmHg 65%
    20:00 +18°C° 0.1 mm 1 mps 635 mmHg 65%
    21:00 +16°C° 0.1 mm 2 mps 635 mmHg 64%
    22:00 +16°C° 0.4 mm 2 mps 636 mmHg 66%
    23:00 +16°C° 0.4 mm 1 mps 636 mmHg 68%

    28 August, Monday

    Time Temperature Precipitation Wind Pressure Humidity
    00:00 +15°C° 0.4 mm 1 mps 636 mmHg 70%
    01:00 +15°C° 0.1 mm 1 mps 636 mmHg 70%
    02:00 +15°C° 0.1 mm 1 mps 636 mmHg 71%
    03:00 +15°C° 0.1 mm 1 mps 636 mmHg 71%
    04:00 +15°C° 0 mm 1 mps 636 mmHg 71%
    05:00 +15°C° 0 mm 1 mps 636 mmHg 71%
    06:00 +15°C° 0 mm 1 mps 636 mmHg 71%
    07:00 +18°C° 0 mm 2 mps 637 mmHg 62%
    08:00 +21°C° 0 mm 2 mps 638 mmHg 52%
    09:00 +25°C° 0 mm 2 mps 639 mmHg 43%
    10:00 +26°C° 0 mm 2 mps 640 mmHg 41%
    11:00 +27°C° 0 mm 3 mps 640 mmHg 38%
    12:00 +28°C° 0 mm 3 mps 640 mmHg 35%
    13:00 +27°C° 0.1 mm 3 mps 640 mmHg 38%
    14:00 +26°C° 0.1 mm 3 mps 639 mmHg 41%
    15:00 +26°C° 0.1 mm 2 mps 639 mmHg 44%
    16:00 +24°C° 0.2 mm 2 mps 638 mmHg 49%
    17:00 +23°C° 0.2 mm 1 mps 638 mmHg 55%
    18:00 +22°C° 0.2 mm 1 mps 637 mmHg 60%
    19:00 +21°C° 0.1 mm 1 mps 637 mmHg 62%
    20:00 +19°C° 0.1 mm 1 mps 637 mmHg 64%
    21:00 +18°C° 0.1 mm 1 mps 637 mmHg 66%
    22:00 +18°C° 0.1 mm 1 mps 637 mmHg 66%
    23:00 +18°C° 0.1 mm 1 mps 636 mmHg 65%
    Show more